Location: B�rgermoos
(47.6500°N, 9.0667°E)
Time: 16:46:30
(UTC+00:00)

Tiros 1 - Pass Details

Date: 10 August 2021
Orbit: 630 x 663 km, 48.4° (Epoch: 20 September)

Event Time Altitude Azimuth Distance (km) Brightness Sun altitude
Rises 20:14:57 0° 284° (WNW) 2,981 11.7 -13.6°
Reaches altitude 10° 20:17:48 10° 268° (W) 2,060 10.4 -14.0°
Maximum altitude 20:21:16 20° 221° (SW) 1,477 9.0 -14.4°
Enters shadow 20:23:58 13° 180° (S) 1,840 9.1 -14.7°
Drops below altitude 10° 20:24:43 10° 173° (S) 2,036 - -14.8°
Sets 20:27:30 0° 157° (SSE) 2,935 - -15.1°
